| time (UTC) | temp F | wind direction | speed knots | gust knots | rain 1hr in | rain 24hr in | rain mn in | humidity % | barometer mb |
| 20260504212040 | 78 | 228 | 3.5 | 14.8 | 0.00 | 0.00 | 0.00 | 45 | 1010.5 |
| 20260504211540 | 78 | 163 | 1.7 | 8.7 | 0.00 | 0.00 | 0.00 | 43 | 1010.5 |
| 20260504211007 | 78 | 241 | 2.6 | 8.7 | 0.00 | 0.00 | 0.00 | 43 | 1010.5 |
| 20260504210506 | 78 | 228 | 3.5 | 9.6 | 0.00 | 0.00 | 0.00 | 45 | 1010.8 |
| 20260504205933 | 78 | 228 | 4.3 | 9.6 | 0.00 | 0.00 | 0.00 | 45 | 1010.8 |
| 20260504205258 | 77 | 245 | 1.7 | 4.3 | 0.00 | 0.00 | 0.00 | 45 | 1010.8 |
| 20260504204756 | 77 | 104 | 1.7 | 7.8 | 0.00 | 0.00 | 0.00 | 46 | 1010.8 |
| 20260504204255 | 77 | 114 | 1.7 | 8.7 | 0.00 | 0.00 | 0.00 | 46 | 1010.8 |
| 20260504203754 | 78 | 92 | 1.7 | 8.7 | 0.00 | 0.00 | 0.00 | 46 | 1010.8 |
| 20260504203253 | 78 | 244 | 3.5 | 6.1 | 0.00 | 0.00 | 0.00 | 44 | 1010.8 |
| 20260504202751 | 78 | 123 | 1.7 | 6.1 | 0.00 | 0.00 | 0.00 | 49 | 1011.2 |
| 20260504202250 | 77 | 248 | 2.6 | 7.0 | 0.00 | 0.00 | 0.00 | 46 | 1011.2 |
| 20260504201749 | 77 | 247 | 4.3 | 7.0 | 0.00 | 0.00 | 0.00 | 46 | 1011.2 |
| 20260504201246 | 77 | 196 | 1.7 | 6.1 | 0.00 | 0.00 | 0.00 | 48 | 1011.2 |
| 20260504200746 | 77 | 105 | 2.6 | 6.1 | 0.00 | 0.00 | 0.00 | 48 | 1011.2 |
| 20260504200244 | 77 | 115 | 1.7 | 7.0 | 0.00 | 0.00 | 0.00 | 48 | 1011.5 |
| 20260504195743 | 77 | 200 | 0.9 | 7.0 | 0.00 | 0.00 | 0.00 | 50 | 1011.5 |
| 20260504195242 | 77 | 226 | 1.7 | 6.1 | 0.00 | 0.00 | 0.00 | 49 | 1011.5 |
| 20260504194740 | 77 | 139 | 1.7 | 7.0 | 0.00 | 0.00 | 0.00 | 48 | 1011.9 |
| 20260504194239 | 77 | 233 | 4.3 | 7.0 | 0.00 | 0.00 | 0.00 | 46 | 1011.9 |
| 20260504193738 | 77 | 150 | 1.7 | 7.8 | 0.00 | 0.00 | 0.00 | 49 | 1011.9 |
| 20260504193236 | 77 | 115 | 2.6 | 7.8 | 0.00 | 0.00 | 0.00 | 49 | 1011.9 |
| 20260504192735 | 77 | 183 | 1.7 | 5.2 | 0.00 | 0.00 | 0.00 | 50 | 1011.9 |
| 20260504192234 | 77 | 257 | 1.7 | 6.1 | 0.00 | 0.00 | 0.00 | 49 | 1012.2 |
| 20260504191733 | 77 | 232 | 2.6 | 6.1 | 0.00 | 0.00 | 0.00 | 49 | 1012.2 |
| 20260504191231 | 76 | 221 | 1.7 | 6.1 | 0.00 | 0.00 | 0.00 | 49 | 1012.2 |
| 20260504190656 | 76 | 240 | 2.6 | 6.1 | 0.00 | 0.00 | 0.00 | 49 | 1012.2 |
| 20260504190154 | 76 | 224 | 1.7 | 7.0 | 0.00 | 0.00 | 0.00 | 48 | 1012.5 |
| 20260504185653 | 76 | 219 | 2.6 | 7.0 | 0.00 | 0.00 | 0.00 | 49 | 1012.5 |
| 20260504185152 | 76 | 220 | 3.5 | 7.0 | 0.00 | 0.00 | 0.00 | 50 | 1012.5 |
| 20260504184649 | 76 | 270 | 1.7 | 7.8 | 0.00 | 0.00 | 0.00 | 49 | 1012.5 |
| 20260504184149 | 77 | 88 | 3.5 | 7.8 | 0.00 | 0.00 | 0.00 | 47 | 1012.5 |
| 20260504183648 | 77 | 336 | 1.7 | 7.8 | 0.00 | 0.00 | 0.00 | 48 | 1012.5 |
| 20260504183147 | 77 | 236 | 4.3 | 7.8 | 0.00 | 0.00 | 0.00 | 48 | 1012.5 |
| 20260504182646 | 77 | 242 | 5.2 | 7.8 | 0.00 | 0.00 | 0.00 | 47 | 1012.5 |
| 20260504182144 | 77 | 230 | 2.6 | 6.1 | 0.00 | 0.00 | 0.00 | 49 | 1012.9 |
| 20260504181610 | 77 | 90 | 3.5 | 7.0 | 0.00 | 0.00 | 0.00 | 47 | 1012.9 |
| 20260504181109 | 76 | 221 | 2.6 | 7.0 | 0.00 | 0.00 | 0.00 | 49 | 1012.9 |
| 20260504180608 | 76 | 83 | 2.6 | 7.0 | 0.00 | 0.00 | 0.00 | 47 | 1012.9 |
| 20260504180107 | 76 | 82 | 1.7 | 7.0 | 0.00 | 0.00 | 0.00 | 48 | 1013.2 |
| 20260504175606 | 76 | 290 | 0.9 | 7.0 | 0.00 | 0.00 | 0.00 | 50 | 1013.2 |
| 20260504175105 | 76 | 189 | 1.7 | 7.0 | 0.00 | 0.00 | 0.00 | 51 | 1013.2 |
| 20260504174603 | 76 | 229 | 1.7 | 4.3 | 0.00 | 0.00 | 0.00 | 50 | 1013.2 |
| 20260504174102 | 75 | 273 | 0.9 | 7.8 | 0.00 | 0.00 | 0.00 | 51 | 1013.2 |
| 20260504173559 | 74 | 178 | 1.7 | 7.8 | 0.00 | 0.00 | 0.00 | 49 | 1013.5 |
| 20260504173058 | 75 | 253 | 1.7 | 7.8 | 0.00 | 0.00 | 0.00 | 47 | 1013.5 |
| 20260504172557 | 75 | 254 | 3.5 | 7.8 | 0.00 | 0.00 | 0.00 | 52 | 1013.5 |
| 20260504172056 | 74 | 165 | 1.7 | 4.3 | 0.00 | 0.00 | 0.00 | 50 | 1013.9 |
| 20260504171554 | 74 | 213 | 0.9 | 4.3 | 0.00 | 0.00 | 0.00 | 50 | 1013.9 |
| 20260504170951 | 73 | 287 | 1.7 | 6.1 | 0.00 | 0.00 | 0.00 | 51 | 1013.9 |
| 20260504170450 | 73 | 79 | 1.7 | 6.1 | 0.00 | 0.00 | 0.00 | 51 | 1013.9 |
| 20260504160405 | 69 | 185 | 0.9 | 4.3 | 0.00 | 0.00 | 0.00 | 55 | 1014.9 |
| 20260504150716 | 66 | 200 | 1.7 | 4.3 | 0.00 | 0.00 | 0.00 | 59 | 1015.9 |
| 20260504150214 | 65 | 237 | 0.9 | 4.3 | 0.00 | 0.00 | 0.00 | 62 | 1015.9 |
| 20260504141026 | 60 | 181 | 0.0 | 2.6 | 0.00 | 0.00 | 0.00 | 72 | 1016.6 |
| 20260504140453 | 59 | 276 | 0.9 | 2.6 | 0.00 | 0.00 | 0.00 | 73 | 1016.6 |
| 20260504130338 | 53 | 251 | 0.9 | 1.7 | 0.00 | 0.00 | 0.00 | 83 | 1016.6 |
| 20260504120250 | 44 | 117 | 0.0 | 0.0 | 0.00 | 0.00 | 0.00 | 95 | 1016.3 |
| 20260504110235 | 41 | 117 | 0.0 | 0.0 | 0.00 | 0.00 | 0.00 | 95 | 1015.9 |
| 20260504100147 | 41 | 117 | 0.0 | 0.0 | 0.00 | 0.00 | 0.00 | 94 | 1015.9 |
| 20260504081914 | 42 | 115 | 0.0 | 0.9 | 0.00 | 0.00 | 0.00 | 93 | 1015.9 |
| 20260504081413 | 42 | 115 | 0.0 | 0.9 | 0.00 | 0.00 | 0.00 | 93 | 1015.9 |
| 20260504080910 | 42 | 115 | 0.0 | 0.9 | 0.00 | 0.00 | 0.00 | 93 | 1015.9 |
| 20260504080409 | 42 | 114 | 0.0 | 0.0 | 0.00 | 0.00 | 0.00 | 92 | 1015.9 |
| 20260504070354 | 43 | 115 | 0.0 | 0.0 | 0.00 | 0.00 | 0.00 | 92 | 1016.3 |
| 20260504060132 | 45 | 114 | 0.0 | 0.9 | 0.00 | 0.00 | 0.00 | 90 | 1016.3 |
| 20260504050517 | 45 | 194 | 0.0 | 0.9 | 0.00 | 0.00 | 0.00 | 90 | 1016.3 |
| 20260504045944 | 45 | 194 | 0.0 | 0.0 | 0.00 | 0.00 | 0.00 | 90 | 1016.3 |
| 20260504045442 | 45 | 194 | 0.0 | 0.0 | 0.00 | 0.00 | 0.00 | 89 | 1016.3 |
| 20260504044941 | 45 | 194 | 0.0 | 0.0 | 0.00 | 0.00 | 0.00 | 89 | 1016.3 |
| 20260504044440 | 45 | 194 | 0.0 | 0.0 | 0.00 | 0.00 | 0.00 | 89 | 1016.3 |
| 20260504043938 | 45 | 194 | 0.0 | 0.0 | 0.00 | 0.00 | 0.00 | 89 | 1016.3 |
| 20260504043436 | 45 | 194 | 0.0 | 0.0 | 0.00 | 0.00 | 0.00 | 88 | 1016.3 |
| 20260504042932 | 45 | 194 | 0.0 | 0.0 | 0.00 | 0.00 | 0.00 | 88 | 1016.3 |
| 20260504042432 | 45 | 194 | 0.0 | 0.0 | 0.00 | 0.00 | 0.00 | 87 | 1016.3 |
| 20260504041931 | 46 | 194 | 0.0 | 0.0 | 0.00 | 0.00 | 0.00 | 86 | 1016.3 |
| 20260504041325 | 46 | 194 | 0.0 | 0.0 | 0.00 | 0.00 | 0.00 | 86 | 1016.3 |
| 20260504040824 | 46 | 194 | 0.0 | 0.0 | 0.00 | 0.00 | 0.00 | 86 | 1016.3 |
| 20260504040322 | 46 | 194 | 0.0 | 0.0 | 0.00 | 0.00 | 0.00 | 85 | 1016.3 |
| 20260504035821 | 46 | 194 | 0.0 | 0.0 | 0.00 | 0.00 | 0.00 | 86 | 1016.3 |
| 20260504035317 | 46 | 195 | 0.0 | 0.0 | 0.00 | 0.00 | 0.00 | 86 | 1016.3 |
| 20260504034816 | 46 | 194 | 0.0 | 0.0 | 0.00 | 0.00 | 0.00 | 86 | 1016.3 |
| 20260504034315 | 46 | 194 | 0.0 | 0.0 | 0.00 | 0.00 | 0.00 | 86 | 1016.3 |
| 20260504033813 | 47 | 194 | 0.0 | 0.0 | 0.00 | 0.00 | 0.00 | 86 | 1016.3 |
| 20260504033240 | 47 | 195 | 0.0 | 0.0 | 0.00 | 0.00 | 0.00 | 86 | 1016.3 |
| 20260504032706 | 47 | 194 | 0.0 | 0.0 | 0.00 | 0.00 | 0.00 | 86 | 1015.9 |
| 20260504032205 | 47 | 194 | 0.0 | 0.0 | 0.00 | 0.00 | 0.00 | 85 | 1016.3 |
| 20260504031704 | 47 | 194 | 0.0 | 0.0 | 0.00 | 0.00 | 0.00 | 85 | 1015.9 |
| 20260504031131 | 48 | 194 | 0.0 | 0.0 | 0.00 | 0.00 | 0.00 | 84 | 1015.9 |
| 20260504030528 | 48 | 194 | 0.0 | 0.0 | 0.00 | 0.00 | 0.00 | 84 | 1015.9 |
| 20260504030025 | 48 | 194 | 0.0 | 0.0 | 0.00 | 0.00 | 0.00 | 84 | 1015.9 |
| 20260504025350 | 48 | 194 | 0.0 | 0.0 | 0.00 | 0.00 | 0.00 | 84 | 1015.9 |
| 20260504024817 | 48 | 194 | 0.0 | 0.0 | 0.00 | 0.00 | 0.00 | 83 | 1015.9 |
| 20260504024317 | 49 | 194 | 0.0 | 0.0 | 0.00 | 0.00 | 0.00 | 84 | 1015.6 |
| 20260504023816 | 49 | 194 | 0.0 | 0.0 | 0.00 | 0.01 | 0.00 | 84 | 1015.6 |
| 20260504023315 | 49 | 194 | 0.0 | 0.0 | 0.00 | 0.01 | 0.00 | 84 | 1015.6 |
| 20260504022814 | 49 | 194 | 0.0 | 0.0 | 0.00 | 0.01 | 0.00 | 84 | 1015.6 |
| 20260504022313 | 49 | 194 | 0.0 | 0.0 | 0.00 | 0.01 | 0.00 | 84 | 1015.6 |
| 20260504021812 | 49 | 194 | 0.0 | 0.0 | 0.00 | 0.01 | 0.00 | 84 | 1015.6 |
| 20260504021309 | 49 | 194 | 0.0 | 0.0 | 0.00 | 0.01 | 0.00 | 84 | 1015.2 |
| 20260504020808 | 50 | 194 | 0.0 | 0.0 | 0.00 | 0.01 | 0.00 | 83 | 1015.2 |
| 20260504020307 | 50 | 194 | 0.0 | 0.0 | 0.00 | 0.01 | 0.00 | 83 | 1015.2 |
| 20260504015806 | 50 | 194 | 0.0 | 0.0 | 0.00 | 0.01 | 0.00 | 83 | 1015.2 |
| 20260504015304 | 50 | 194 | 0.0 | 0.0 | 0.00 | 0.02 | 0.00 | 83 | 1015.2 |
| 20260504014803 | 50 | 194 | 0.0 | 0.0 | 0.00 | 0.03 | 0.00 | 83 | 1015.2 |
| 20260504014301 | 51 | 194 | 0.0 | 0.0 | 0.00 | 0.04 | 0.00 | 82 | 1015.2 |
| 20260504013800 | 51 | 194 | 0.0 | 0.0 | 0.00 | 0.05 | 0.00 | 82 | 1015.2 |
| 20260504013259 | 51 | 194 | 0.0 | 0.0 | 0.00 | 0.05 | 0.00 | 82 | 1015.2 |
| 20260504012758 | 51 | 194 | 0.0 | 0.0 | 0.00 | 0.05 | 0.00 | 82 | 1015.2 |
| 20260504012257 | 52 | 194 | 0.0 | 0.0 | 0.00 | 0.05 | 0.00 | 82 | 1015.2 |
| 20260504011756 | 52 | 194 | 0.0 | 0.0 | 0.00 | 0.05 | 0.00 | 81 | 1015.2 |
| 20260504011254 | 53 | 194 | 0.0 | 0.0 | 0.00 | 0.05 | 0.00 | 81 | 1015.2 |
| 20260504010753 | 53 | 194 | 0.0 | 0.0 | 0.00 | 0.05 | 0.00 | 80 | 1015.2 |
| 20260504010252 | 53 | 194 | 0.0 | 0.0 | 0.00 | 0.05 | 0.00 | 79 | 1015.2 |
| 20260504005751 | 54 | 194 | 0.0 | 0.0 | 0.00 | 0.05 | 0.00 | 78 | 1015.2 |
| 20260504005218 | 54 | 194 | 0.0 | 0.9 | 0.00 | 0.05 | 0.00 | 78 | 1015.2 |
| 20260504004717 | 55 | 194 | 0.0 | 0.9 | 0.00 | 0.05 | 0.00 | 77 | 1015.2 |
| 20260504004215 | 56 | 194 | 0.0 | 0.9 | 0.00 | 0.05 | 0.00 | 76 | 1014.9 |
| 20260504003714 | 56 | 194 | 0.0 | 0.9 | 0.00 | 0.05 | 0.00 | 75 | 1014.9 |
| 20260504003213 | 57 | 201 | 0.9 | 0.9 | 0.00 | 0.05 | 0.00 | 74 | 1014.9 |
| 20260504002711 | 57 | 207 | 0.0 | 0.0 | 0.00 | 0.05 | 0.00 | 72 | 1014.9 |
| 20260504002139 | 58 | 209 | 0.0 | 0.9 | 0.00 | 0.05 | 0.00 | 70 | 1014.9 |
| 20260504001637 | 59 | 208 | 0.0 | 0.9 | 0.00 | 0.05 | 0.00 | 69 | 1014.9 |
| 20260504001033 | 59 | 208 | 0.0 | 0.9 | 0.00 | 0.05 | 0.00 | 67 | 1014.9 |
| 20260504000532 | 60 | 208 | 0.0 | 0.9 | 0.00 | 0.05 | 0.00 | 64 | 1014.9 |
| 20260504000031 | 61 | 208 | 0.0 | 0.9 | 0.00 | 0.05 | 0.00 | 62 | 1014.9 |
| 20260503235530 | 61 | 208 | 0.0 | 0.9 | 0.00 | 0.05 | 0.00 | 58 | 1014.9 |
| 20260503234958 | 62 | 208 | 0.0 | 0.9 | 0.00 | 0.05 | 0.00 | 57 | 1014.9 |
| 20260503234354 | 62 | 209 | 0.0 | 0.9 | 0.00 | 0.05 | 0.00 | 55 | 1014.9 |
| 20260503233853 | 63 | 208 | 0.0 | 0.9 | 0.00 | 0.05 | 0.00 | 54 | 1014.9 |
| 20260503233352 | 63 | 208 | 0.9 | 0.9 | 0.00 | 0.05 | 0.00 | 53 | 1014.9 |
| 20260503232849 | 64 | 233 | 0.0 | 4.3 | 0.00 | 0.05 | 0.00 | 52 | 1015.2 |
| 20260503232349 | 64 | 182 | 0.9 | 4.3 | 0.00 | 0.05 | 0.00 | 50 | 1015.2 |
| 20260503231815 | 64 | 212 | 0.0 | 5.2 | 0.00 | 0.05 | 0.00 | 50 | 1015.2 |
| 20260503231314 | 65 | 116 | 1.7 | 5.2 | 0.00 | 0.05 | 0.00 | 47 | 1015.2 |
| 20260503230742 | 65 | 142 | 0.9 | 2.6 | 0.00 | 0.05 | 0.00 | 47 | 1015.2 |
| 20260503230240 | 65 | 255 | 1.7 | 2.6 | 0.00 | 0.05 | 0.00 | 46 | 1015.2 |
| 20260503225739 | 65 | 199 | 0.9 | 5.2 | 0.00 | 0.05 | 0.00 | 46 | 1015.2 |
| 20260503225237 | 65 | 182 | 0.9 | 5.2 | 0.00 | 0.05 | 0.00 | 45 | 1015.2 |
| 20260503224737 | 65 | 282 | 0.9 | 5.2 | 0.00 | 0.05 | 0.00 | 44 | 1015.2 |
| 20260503224236 | 65 | 241 | 2.6 | 5.2 | 0.00 | 0.05 | 0.00 | 44 | 1015.2 |
| 20260503223704 | 65 | 227 | 1.7 | 6.1 | 0.00 | 0.05 | 0.00 | 44 | 1015.6 |
| 20260503223202 | 65 | 205 | 0.9 | 7.0 | 0.00 | 0.05 | 0.00 | 45 | 1015.6 |
| 20260503222701 | 65 | 249 | 0.9 | 7.0 | 0.00 | 0.05 | 0.00 | 44 | 1015.6 |
| 20260503222200 | 65 | 233 | 2.6 | 5.2 | 0.00 | 0.05 | 0.00 | 44 | 1015.6 |
| 20260503221556 | 65 | 230 | 1.7 | 5.2 | 0.00 | 0.05 | 0.00 | 44 | 1015.6 |
| 20260503221055 | 66 | 229 | 0.9 | 3.5 | 0.00 | 0.05 | 0.00 | 43 | 1015.6 |
| 20260503220554 | 66 | 241 | 1.7 | 3.5 | 0.00 | 0.05 | 0.00 | 44 | 1015.6 |
| 20260503220053 | 66 | 145 | 0.9 | 3.5 | 0.00 | 0.05 | 0.00 | 44 | 1015.9 |
| 20260503215552 | 66 | 272 | 1.7 | 3.5 | 0.00 | 0.05 | 0.00 | 44 | 1015.9 |
| 20260503215052 | 66 | 220 | 1.7 | 3.5 | 0.00 | 0.05 | 0.00 | 44 | 1015.9 |
| 20260503214518 | 67 | 250 | 1.7 | 5.2 | 0.00 | 0.05 | 0.00 | 42 | 1015.9 |
| 20260503214017 | 67 | 179 | 0.9 | 5.2 | 0.00 | 0.05 | 0.00 | 44 | 1015.9 |
| 20260503213517 | 67 | 246 | 0.9 | 6.1 | 0.00 | 0.05 | 0.00 | 41 | 1015.9 |
| 20260503213016 | 68 | 243 | 2.6 | 6.1 | 0.00 | 0.05 | 0.00 | 40 | 1015.9 |
| 20260503212514 | 68 | 258 | 1.7 | 5.2 | 0.00 | 0.05 | 0.00 | 39 | 1015.9 |